| time (UTC) | temp F | wind direction | speed MPH | gust MPH | rain 1hr in | rain 24hr in | rain mn in | humidity % | barometer mb |
| 20260903231033 | 93 | 160 | 0.0 | 0.0 | 0.00 | 0.00 | 0.00 | 56 | 1018.5 |
| 20260903230530 | 94 | 161 | 0.0 | 0.0 | 0.00 | 0.00 | 0.00 | 55 | 1018.6 |
| 20260903230028 | 94 | 162 | 0.0 | 0.0 | 0.00 | 0.00 | 0.00 | 55 | 1018.5 |
| 20260903225526 | 94 | 168 | 0.0 | 0.0 | 0.00 | 0.00 | 0.00 | 54 | 1018.5 |
| 20260903225022 | 95 | 151 | 0.0 | 0.0 | 0.00 | 0.00 | 0.00 | 54 | 1018.5 |
| 20260903224518 | 95 | 151 | 0.0 | 0.0 | 0.00 | 0.00 | 0.00 | 53 | 1018.6 |
| 20260903224014 | 95 | 167 | 0.0 | 1.0 | 0.00 | 0.00 | 0.00 | 52 | 1018.4 |
| 20260903223513 | 96 | 153 | 0.0 | 1.0 | 0.00 | 0.00 | 0.00 | 52 | 1018.6 |
| 20260903223012 | 96 | 170 | 0.0 | 0.0 | 0.00 | 0.00 | 0.00 | 51 | 1018.5 |
| 20260903222507 | 96 | 157 | 0.0 | 1.0 | 0.00 | 0.00 | 0.00 | 50 | 1018.5 |
| 20260903222006 | 97 | 167 | 0.0 | 0.0 | 0.00 | 0.00 | 0.00 | 49 | 1018.7 |
| 20260903221501 | 97 | 159 | 0.0 | 1.0 | 0.00 | 0.00 | 0.00 | 48 | 1018.6 |
| 20260903220958 | 98 | 169 | 0.0 | 1.0 | 0.00 | 0.00 | 0.00 | 47 | 1018.6 |
| 20260903220453 | 99 | 155 | 0.0 | 1.0 | 0.00 | 0.00 | 0.00 | 47 | 1018.4 |
| 20260903215950 | 100 | 167 | 1.0 | 1.0 | 0.00 | 0.00 | 0.00 | 46 | 1018.4 |
| 20260903215447 | 100 | 157 | 0.0 | 1.0 | 0.00 | 0.00 | 0.00 | 46 | 1018.6 |
| 20260903214945 | 100 | 161 | 1.0 | 2.0 | 0.00 | 0.00 | 0.00 | 46 | 1018.6 |
| 20260903214441 | 100 | 160 | 1.0 | 1.0 | 0.00 | 0.00 | 0.00 | 45 | 1018.6 |
| 20260903213941 | 100 | 156 | 0.0 | 1.0 | 0.00 | 0.00 | 0.00 | 46 | 1018.7 |
| 20260903213436 | 99 | 149 | 0.0 | 2.0 | 0.00 | 0.00 | 0.00 | 46 | 1018.5 |
| 20260903212932 | 100 | 192 | 2.0 | 2.0 | 0.00 | 0.00 | 0.00 | 45 | 1018.8 |
| 20260903212428 | 100 | 157 | 0.0 | 1.0 | 0.00 | 0.00 | 0.00 | 45 | 1018.5 |
| 20260903211922 | 101 | 252 | 3.0 | 3.0 | 0.00 | 0.00 | 0.00 | 45 | 1018.7 |
| 20260903211418 | 100 | 166 | 1.0 | 1.0 | 0.00 | 0.00 | 0.00 | 46 | 1018.6 |
| 20260903210914 | 100 | 174 | 0.0 | 1.0 | 0.00 | 0.00 | 0.00 | 47 | 1018.8 |
| 20260903210413 | 100 | 172 | 0.0 | 2.0 | 0.00 | 0.00 | 0.00 | 46 | 1018.6 |
| 20260903205909 | 100 | 161 | 1.0 | 2.0 | 0.00 | 0.00 | 0.00 | 47 | 1018.9 |
| 20260903205408 | 99 | 156 | 0.0 | 1.0 | 0.00 | 0.00 | 0.00 | 49 | 1018.8 |
| 20260903204903 | 98 | 162 | 0.0 | 0.0 | 0.00 | 0.00 | 0.00 | 49 | 1018.9 |
| 20260903204359 | 98 | 151 | 0.0 | 2.0 | 0.00 | 0.00 | 0.00 | 49 | 1019.2 |
| 20260903203854 | 99 | 151 | 0.0 | 1.0 | 0.00 | 0.00 | 0.00 | 49 | 1019.1 |
| 20260903203350 | 97 | 157 | 0.0 | 1.0 | 0.00 | 0.00 | 0.00 | 48 | 1019.1 |
| 20260903202849 | 98 | 143 | 0.0 | 1.0 | 0.00 | 0.00 | 0.00 | 46 | 1019.0 |
| 20260903202346 | 100 | 139 | 1.0 | 2.0 | 0.00 | 0.00 | 0.00 | 43 | 1019.3 |
| 20260903201845 | 101 | 157 | 0.0 | 2.0 | 0.00 | 0.00 | 0.00 | 43 | 1019.3 |
| 20260903201340 | 101 | 146 | 1.0 | 3.0 | 0.00 | 0.00 | 0.00 | 44 | 1019.3 |
| 20260903200838 | 102 | 164 | 1.0 | 2.0 | 0.00 | 0.00 | 0.00 | 45 | 1019.3 |
| 20260903200329 | 101 | 156 | 0.0 | 3.0 | 0.00 | 0.00 | 0.00 | 46 | 1019.4 |
| 20260903195824 | 99 | 224 | 1.0 | 2.0 | 0.00 | 0.00 | 0.00 | 49 | 1019.5 |
| 20260903195320 | 97 | 154 | 0.0 | 1.0 | 0.00 | 0.00 | 0.00 | 49 | 1019.4 |
| 20260903194815 | 97 | 136 | 0.0 | 1.0 | 0.00 | 0.00 | 0.00 | 48 | 1019.3 |
| 20260903194310 | 97 | 160 | 0.0 | 2.0 | 0.00 | 0.00 | 0.00 | 50 | 1019.6 |
| 20260903193805 | 97 | 152 | 0.0 | 1.0 | 0.00 | 0.00 | 0.00 | 48 | 1019.6 |
| 20260903193301 | 98 | 153 | 1.0 | 2.0 | 0.00 | 0.00 | 0.00 | 47 | 1019.5 |
| 20260903192757 | 99 | 169 | 3.0 | 3.0 | 0.00 | 0.00 | 0.00 | 46 | 1019.8 |
| 20260903192252 | 100 | 149 | 0.0 | 1.0 | 0.00 | 0.00 | 0.00 | 45 | 1019.7 |
| 20260903191748 | 100 | 173 | 1.0 | 2.0 | 0.00 | 0.00 | 0.00 | 45 | 1019.9 |
| 20260903191238 | 102 | 157 | 1.0 | 3.0 | 0.00 | 0.00 | 0.00 | 45 | 1019.6 |
| 20260903190732 | 102 | 174 | 1.0 | 2.0 | 0.00 | 0.00 | 0.00 | 45 | 1019.6 |
| 20260903190232 | 100 | 226 | 1.0 | 2.0 | 0.00 | 0.00 | 0.00 | 46 | 1019.9 |
| 20260903185727 | 100 | 149 | 2.0 | 3.0 | 0.00 | 0.00 | 0.00 | 48 | 1019.8 |
| 20260903185221 | 99 | 142 | 2.0 | 3.0 | 0.00 | 0.00 | 0.00 | 48 | 1019.9 |
| 20260903184718 | 99 | 128 | 2.0 | 3.0 | 0.00 | 0.00 | 0.00 | 50 | 1020.0 |
| 20260903184214 | 98 | 127 | 1.0 | 2.0 | 0.00 | 0.00 | 0.00 | 49 | 1019.9 |
| 20260903183713 | 98 | 137 | 1.0 | 2.0 | 0.00 | 0.00 | 0.00 | 49 | 1020.0 |
| 20260903183208 | 98 | 147 | 0.0 | 2.0 | 0.00 | 0.00 | 0.00 | 50 | 1020.0 |
| 20260903182707 | 97 | 149 | 0.0 | 2.0 | 0.00 | 0.00 | 0.00 | 51 | 1020.2 |
| 20260903182203 | 97 | 188 | 1.0 | 2.0 | 0.00 | 0.00 | 0.00 | 49 | 1020.2 |
| 20260903181701 | 98 | 84 | 1.0 | 2.0 | 0.00 | 0.00 | 0.00 | 49 | 1020.3 |
| 20260903181156 | 99 | 199 | 1.0 | 2.0 | 0.00 | 0.00 | 0.00 | 49 | 1020.2 |
| 20260903180651 | 99 | 173 | 3.0 | 3.0 | 0.00 | 0.00 | 0.00 | 50 | 1020.4 |
| 20260903180146 | 97 | 145 | 1.0 | 2.0 | 0.00 | 0.00 | 0.00 | 51 | 1020.4 |
| 20260903175645 | 97 | 140 | 0.0 | 1.0 | 0.00 | 0.00 | 0.00 | 49 | 1020.5 |
| 20260903175145 | 98 | 154 | 2.0 | 3.0 | 0.00 | 0.00 | 0.00 | 49 | 1020.5 |
| 20260903174639 | 97 | 147 | 0.0 | 2.0 | 0.00 | 0.00 | 0.00 | 51 | 1020.7 |
| 20260903174134 | 96 | 192 | 2.0 | 3.0 | 0.00 | 0.00 | 0.00 | 51 | 1020.7 |
| 20260903173629 | 96 | 148 | 0.0 | 1.0 | 0.00 | 0.00 | 0.00 | 52 | 1020.8 |
| 20260903173126 | 97 | 145 | 0.0 | 1.0 | 0.00 | 0.00 | 0.00 | 50 | 1020.7 |
| 20260903172625 | 98 | 152 | 2.0 | 2.0 | 0.00 | 0.00 | 0.00 | 50 | 1020.6 |
| 20260903172121 | 98 | 146 | 2.0 | 2.0 | 0.00 | 0.00 | 0.00 | 51 | 1020.6 |
| 20260903171621 | 97 | 146 | 0.0 | 2.0 | 0.00 | 0.00 | 0.00 | 50 | 1020.6 |
| 20260903171117 | 98 | 177 | 2.0 | 3.0 | 0.00 | 0.00 | 0.00 | 50 | 1021.0 |
| 20260903170615 | 99 | 134 | 0.0 | 2.0 | 0.00 | 0.00 | 0.00 | 50 | 1020.8 |
| 20260903170111 | 99 | 138 | 2.0 | 3.0 | 0.00 | 0.00 | 0.00 | 50 | 1020.8 |
| 20260903165609 | 98 | 147 | 2.0 | 3.0 | 0.00 | 0.00 | 0.00 | 51 | 1020.9 |
| 20260903165104 | 98 | 138 | 1.0 | 1.0 | 0.00 | 0.00 | 0.00 | 51 | 1021.1 |
| 20260903164559 | 98 | 140 | 1.0 | 2.0 | 0.00 | 0.00 | 0.00 | 51 | 1021.0 |
| 20260903164054 | 98 | 164 | 1.0 | 2.0 | 0.00 | 0.00 | 0.00 | 51 | 1021.3 |
| 20260903163549 | 98 | 182 | 2.0 | 3.0 | 0.00 | 0.00 | 0.00 | 52 | 1021.1 |
| 20260903163045 | 97 | 163 | 2.0 | 2.0 | 0.00 | 0.00 | 0.00 | 53 | 1021.1 |
| 20260903162541 | 96 | 144 | 0.0 | 3.0 | 0.00 | 0.00 | 0.00 | 54 | 1021.2 |
| 20260903162037 | 96 | 172 | 1.0 | 2.0 | 0.00 | 0.00 | 0.00 | 55 | 1021.1 |
| 20260903161532 | 96 | 170 | 1.0 | 2.0 | 0.00 | 0.00 | 0.00 | 55 | 1021.3 |
| 20260903161028 | 96 | 137 | 1.0 | 2.0 | 0.00 | 0.00 | 0.00 | 55 | 1021.5 |
| 20260903160527 | 97 | 159 | 2.0 | 3.0 | 0.00 | 0.00 | 0.00 | 56 | 1021.3 |
| 20260903160022 | 96 | 153 | 0.0 | 3.0 | 0.00 | 0.00 | 0.00 | 57 | 1021.4 |
| 20260903155520 | 96 | 169 | 2.0 | 3.0 | 0.00 | 0.00 | 0.00 | 57 | 1021.3 |
| 20260903155016 | 96 | 204 | 1.0 | 1.0 | 0.00 | 0.00 | 0.00 | 59 | 1021.4 |
| 20260903154512 | 95 | 161 | 1.0 | 3.0 | 0.00 | 0.00 | 0.00 | 60 | 1021.5 |
| 20260903154008 | 95 | 155 | 1.0 | 2.0 | 0.00 | 0.00 | 0.00 | 61 | 1021.5 |
| 20260903153503 | 95 | 176 | 1.0 | 2.0 | 0.00 | 0.00 | 0.00 | 63 | 1021.2 |
| 20260903152959 | 94 | 154 | 0.0 | 2.0 | 0.00 | 0.00 | 0.00 | 64 | 1021.5 |
| 20260903152454 | 93 | 190 | 1.0 | 3.0 | 0.00 | 0.00 | 0.00 | 66 | 1021.3 |
| 20260903151950 | 93 | 153 | 0.0 | 0.0 | 0.00 | 0.00 | 0.00 | 70 | 1021.4 |
| 20260903151444 | 92 | 154 | 0.0 | 1.0 | 0.00 | 0.00 | 0.00 | 71 | 1021.4 |
| 20260903150940 | 91 | 150 | 0.0 | 1.0 | 0.00 | 0.00 | 0.00 | 72 | 1021.5 |
| 20260903150439 | 91 | 159 | 2.0 | 2.0 | 0.00 | 0.00 | 0.00 | 74 | 1021.3 |
| 20260903145934 | 90 | 170 | 1.0 | 2.0 | 0.00 | 0.00 | 0.00 | 77 | 1021.4 |
| 20260903145430 | 89 | 146 | 0.0 | 2.0 | 0.00 | 0.00 | 0.00 | 79 | 1021.3 |
| 20260903144924 | 89 | 152 | 0.0 | 0.0 | 0.00 | 0.00 | 0.00 | 82 | 1021.5 |
| 20260903144424 | 88 | 157 | 0.0 | 1.0 | 0.00 | 0.00 | 0.00 | 83 | 1021.5 |
| 20260903143919 | 87 | 158 | 0.0 | 2.0 | 0.00 | 0.00 | 0.00 | 85 | 1021.4 |
| 20260903143415 | 86 | 143 | 0.0 | 1.0 | 0.00 | 0.00 | 0.00 | 88 | 1021.5 |
| 20260903142911 | 86 | 149 | 0.0 | 1.0 | 0.00 | 0.00 | 0.00 | 90 | 1021.6 |
| 20260903142401 | 85 | 148 | 0.0 | 1.0 | 0.00 | 0.00 | 0.00 | 93 | 1021.6 |
| 20260903141857 | 83 | 147 | 0.0 | 0.0 | 0.00 | 0.00 | 0.00 | 95 | 1021.6 |
| 20260903141353 | 82 | 149 | 0.0 | 0.0 | 0.00 | 0.00 | 0.00 | 96 | 1021.8 |
| 20260903140848 | 81 | 149 | 0.0 | 0.0 | 0.00 | 0.00 | 0.00 | 97 | 1021.6 |
| 20260903140343 | 80 | 151 | 0.0 | 0.0 | 0.00 | 0.00 | 0.00 | 97 | 1021.7 |
| 20260903135838 | 80 | 157 | 0.0 | 1.0 | 0.00 | 0.00 | 0.00 | 98 | 1021.7 |
| 20260903135334 | 79 | 151 | 0.0 | 0.0 | 0.00 | 0.00 | 0.00 | 98 | 1021.8 |
| 20260903134833 | 78 | 154 | 0.0 | 0.0 | 0.00 | 0.00 | 0.00 | 99 | 1021.8 |
| 20260903134328 | 78 | 149 | 0.0 | 0.0 | 0.00 | 0.00 | 0.00 | 99 | 1021.7 |
| 20260903133825 | 78 | 153 | 0.0 | 0.0 | 0.00 | 0.00 | 0.00 | 99 | 1022.0 |
| 20260903133321 | 77 | 153 | 0.0 | 0.0 | 0.00 | 0.00 | 0.00 | 99 | 1021.8 |
| 20260903132816 | 76 | 150 | 0.0 | 0.0 | 0.00 | 0.00 | 0.00 | 99 | 1022.0 |
| 20260903132312 | 76 | 150 | 0.0 | 0.0 | 0.00 | 0.00 | 0.00 | 99 | 1022.1 |
| 20260903131807 | 75 | 150 | 0.0 | 0.0 | 0.00 | 0.00 | 0.00 | 99 | 1022.0 |
| 20260903131306 | 75 | 150 | 0.0 | 0.0 | 0.00 | 0.00 | 0.00 | 99 | 1022.0 |
| 20260903130801 | 74 | 150 | 0.0 | 0.0 | 0.00 | 0.00 | 0.00 | 99 | 1022.0 |
| 20260903130256 | 74 | 150 | 0.0 | 0.0 | 0.00 | 0.00 | 0.00 | 99 | 1022.2 |
| 20260903125754 | 73 | 150 | 0.0 | 0.0 | 0.00 | 0.00 | 0.00 | 99 | 1022.1 |
| 20260903125250 | 73 | 150 | 0.0 | 0.0 | 0.00 | 0.00 | 0.00 | 99 | 1022.0 |
| 20260903124749 | 73 | 150 | 0.0 | 0.0 | 0.00 | 0.00 | 0.00 | 99 | 1022.0 |
| 20260903124244 | 73 | 150 | 0.0 | 0.0 | 0.00 | 0.00 | 0.00 | 99 | 1022.2 |
| 20260903123743 | 72 | 150 | 0.0 | 0.0 | 0.00 | 0.00 | 0.00 | 99 | 1022.2 |
| 20260903123243 | 72 | 150 | 0.0 | 0.0 | 0.00 | 0.00 | 0.00 | 99 | 1022.0 |
| 20260903122741 | 72 | 150 | 0.0 | 0.0 | 0.00 | 0.00 | 0.00 | 99 | 1022.2 |
| 20260903122236 | 72 | 150 | 0.0 | 0.0 | 0.00 | 0.00 | 0.00 | 99 | 1021.9 |
| 20260903121734 | 71 | 150 | 0.0 | 0.0 | 0.00 | 0.00 | 0.00 | 99 | 1021.9 |
| 20260903121231 | 71 | 150 | 0.0 | 0.0 | 0.00 | 0.00 | 0.00 | 99 | 1022.2 |
| 20260903120731 | 71 | 150 | 0.0 | 0.0 | 0.00 | 0.00 | 0.00 | 99 | 1022.0 |
| 20260903120224 | 71 | 150 | 0.0 | 0.0 | 0.00 | 0.00 | 0.00 | 99 | 1022.0 |
| 20260903115723 | 71 | 150 | 0.0 | 0.0 | 0.00 | 0.00 | 0.00 | 99 | 1022.1 |
| 20260903115218 | 71 | 150 | 0.0 | 0.0 | 0.00 | 0.00 | 0.00 | 99 | 1021.9 |
| 20260903114713 | 71 | 150 | 0.0 | 0.0 | 0.00 | 0.00 | 0.00 | 99 | 1021.7 |
| 20260903114208 | 71 | 150 | 0.0 | 0.0 | 0.00 | 0.00 | 0.00 | 99 | 1022.0 |
| 20260903113703 | 71 | 150 | 0.0 | 0.0 | 0.00 | 0.00 | 0.00 | 99 | 1021.7 |
| 20260903113159 | 71 | 150 | 0.0 | 0.0 | 0.00 | 0.00 | 0.00 | 99 | 1021.8 |
| 20260903112655 | 71 | 150 | 0.0 | 0.0 | 0.00 | 0.00 | 0.00 | 99 | 1021.7 |
| 20260903112150 | 71 | 150 | 0.0 | 0.0 | 0.00 | 0.00 | 0.00 | 99 | 1021.9 |
| 20260903111649 | 71 | 150 | 0.0 | 0.0 | 0.00 | 0.00 | 0.00 | 99 | 1021.7 |
| 20260903111145 | 71 | 150 | 0.0 | 0.0 | 0.00 | 0.00 | 0.00 | 99 | 1021.5 |
| 20260903110641 | 71 | 150 | 0.0 | 0.0 | 0.00 | 0.00 | 0.00 | 99 | 1021.5 |
| 20260903110136 | 71 | 150 | 0.0 | 0.0 | 0.00 | 0.00 | 0.00 | 99 | 1021.5 |
| 20260903105631 | 71 | 150 | 0.0 | 0.0 | 0.00 | 0.00 | 0.00 | 99 | 1021.5 |
| 20260903105126 | 71 | 150 | 0.0 | 0.0 | 0.00 | 0.00 | 0.00 | 99 | 1021.4 |
| 20260903104625 | 71 | 150 | 0.0 | 0.0 | 0.00 | 0.00 | 0.00 | 99 | 1021.5 |
| 20260903104121 | 71 | 150 | 0.0 | 0.0 | 0.00 | 0.00 | 0.00 | 99 | 1021.5 |
| 20260903103616 | 71 | 150 | 0.0 | 0.0 | 0.00 | 0.00 | 0.00 | 99 | 1021.3 |
| 20260903103113 | 71 | 150 | 0.0 | 0.0 | 0.00 | 0.00 | 0.00 | 99 | 1021.3 |
| 20260903102608 | 71 | 150 | 0.0 | 0.0 | 0.00 | 0.00 | 0.00 | 99 | 1021.3 |
| 20260903102107 | 71 | 150 | 0.0 | 0.0 | 0.00 | 0.00 | 0.00 | 99 | 1021.3 |
| 20260903101601 | 71 | 150 | 0.0 | 0.0 | 0.00 | 0.00 | 0.00 | 99 | 1021.7 |
| 20260903101057 | 71 | 150 | 0.0 | 0.0 | 0.00 | 0.00 | 0.00 | 99 | 1021.5 |
| 20260903100557 | 71 | 150 | 0.0 | 0.0 | 0.00 | 0.00 | 0.00 | 99 | 1021.6 |
| 20260903100056 | 71 | 150 | 0.0 | 0.0 | 0.00 | 0.00 | 0.00 | 99 | 1021.5 |
| 20260903095554 | 72 | 150 | 0.0 | 0.0 | 0.00 | 0.00 | 0.00 | 99 | 1021.3 |
| 20260903095048 | 72 | 150 | 0.0 | 0.0 | 0.00 | 0.00 | 0.00 | 99 | 1021.3 |
| 20260903094543 | 72 | 150 | 0.0 | 0.0 | 0.00 | 0.00 | 0.00 | 99 | 1021.3 |
| 20260903094038 | 72 | 150 | 0.0 | 0.0 | 0.00 | 0.00 | 0.00 | 99 | 1021.5 |
| 20260903093533 | 72 | 150 | 0.0 | 0.0 | 0.00 | 0.00 | 0.00 | 99 | 1021.4 |
| 20260903093029 | 72 | 150 | 0.0 | 0.0 | 0.00 | 0.00 | 0.00 | 99 | 1021.4 |
| 20260903092528 | 72 | 150 | 0.0 | 0.0 | 0.00 | 0.00 | 0.00 | 99 | 1021.4 |
| 20260903092022 | 72 | 150 | 0.0 | 0.0 | 0.00 | 0.00 | 0.00 | 99 | 1021.3 |
| 20260903091520 | 72 | 150 | 0.0 | 0.0 | 0.00 | 0.00 | 0.00 | 98 | 1021.5 |
| 20260903091015 | 72 | 150 | 0.0 | 0.0 | 0.00 | 0.00 | 0.00 | 98 | 1021.1 |
| 20260903090512 | 72 | 150 | 0.0 | 0.0 | 0.00 | 0.00 | 0.00 | 98 | 1021.2 |
| 20260903090010 | 72 | 150 | 0.0 | 0.0 | 0.00 | 0.00 | 0.00 | 98 | 1021.2 |
| 20260903085508 | 72 | 150 | 0.0 | 0.0 | 0.00 | 0.00 | 0.00 | 98 | 1021.3 |
| 20260903085004 | 72 | 150 | 0.0 | 0.0 | 0.00 | 0.00 | 0.00 | 98 | 1021.3 |
| 20260903084502 | 72 | 150 | 0.0 | 0.0 | 0.00 | 0.00 | 0.00 | 98 | 1021.1 |
| 20260903083957 | 72 | 150 | 0.0 | 0.0 | 0.00 | 0.00 | 0.00 | 98 | 1021.1 |
| 20260903083453 | 72 | 150 | 0.0 | 0.0 | 0.00 | 0.00 | 0.00 | 98 | 1021.1 |
| 20260903082952 | 72 | 150 | 0.0 | 0.0 | 0.00 | 0.00 | 0.00 | 98 | 1021.2 |
| 20260903082447 | 72 | 150 | 0.0 | 0.0 | 0.00 | 0.00 | 0.00 | 98 | 1021.2 |
| 20260903081942 | 72 | 150 | 0.0 | 0.0 | 0.00 | 0.00 | 0.00 | 98 | 1021.1 |
| 20260903081438 | 72 | 150 | 0.0 | 0.0 | 0.00 | 0.00 | 0.00 | 98 | 1021.1 |
| 20260903080934 | 72 | 150 | 0.0 | 0.0 | 0.00 | 0.00 | 0.00 | 98 | 1020.8 |
| 20260903080430 | 73 | 150 | 0.0 | 0.0 | 0.00 | 0.00 | 0.00 | 98 | 1020.8 |
| 20260903075925 | 73 | 150 | 0.0 | 0.0 | 0.00 | 0.00 | 0.00 | 98 | 1020.9 |
| 20260903075421 | 73 | 150 | 0.0 | 0.0 | 0.00 | 0.00 | 0.00 | 98 | 1020.9 |
| 20260903074915 | 72 | 150 | 0.0 | 0.0 | 0.00 | 0.00 | 0.00 | 98 | 1020.7 |
| 20260903074409 | 73 | 150 | 0.0 | 0.0 | 0.00 | 0.00 | 0.00 | 98 | 1021.0 |
| 20260903073904 | 73 | 150 | 0.0 | 0.0 | 0.00 | 0.00 | 0.00 | 98 | 1021.0 |
| 20260903073359 | 73 | 150 | 0.0 | 0.0 | 0.00 | 0.00 | 0.00 | 98 | 1020.7 |
| 20260903072855 | 73 | 150 | 0.0 | 0.0 | 0.00 | 0.00 | 0.00 | 97 | 1020.7 |
| 20260903072351 | 73 | 150 | 0.0 | 0.0 | 0.00 | 0.00 | 0.00 | 97 | 1020.7 |
| 20260903071848 | 73 | 150 | 0.0 | 0.0 | 0.00 | 0.00 | 0.00 | 97 | 1020.8 |
| 20260903071343 | 73 | 150 | 0.0 | 0.0 | 0.00 | 0.00 | 0.00 | 97 | 1020.6 |
| 20260903070839 | 73 | 150 | 0.0 | 0.0 | 0.00 | 0.00 | 0.00 | 97 | 1020.7 |
| 20260903070333 | 73 | 150 | 0.0 | 0.0 | 0.00 | 0.00 | 0.00 | 97 | 1020.7 |
| 20260903065828 | 73 | 150 | 0.0 | 0.0 | 0.00 | 0.00 | 0.00 | 97 | 1020.6 |
| 20260903065327 | 73 | 150 | 0.0 | 0.0 | 0.00 | 0.00 | 0.00 | 97 | 1020.5 |
| 20260903064826 | 74 | 150 | 0.0 | 0.0 | 0.00 | 0.00 | 0.00 | 97 | 1020.5 |
| 20260903064316 | 74 | 150 | 0.0 | 0.0 | 0.00 | 0.00 | 0.00 | 97 | 1020.3 |
| 20260903063812 | 74 | 150 | 0.0 | 0.0 | 0.00 | 0.00 | 0.00 | 97 | 1020.6 |
| 20260903063306 | 74 | 150 | 0.0 | 0.0 | 0.00 | 0.00 | 0.00 | 97 | 1020.5 |
| 20260903062757 | 74 | 150 | 0.0 | 0.0 | 0.00 | 0.00 | 0.00 | 97 | 1020.5 |
| 20260903062257 | 74 | 150 | 0.0 | 0.0 | 0.00 | 0.00 | 0.00 | 97 | 1020.6 |
| 20260903061753 | 74 | 150 | 0.0 | 0.0 | 0.00 | 0.00 | 0.00 | 96 | 1020.7 |
| 20260903061251 | 74 | 150 | 0.0 | 0.0 | 0.00 | 0.00 | 0.00 | 96 | 1021.0 |
| 20260903060747 | 74 | 150 | 0.0 | 0.0 | 0.00 | 0.00 | 0.00 | 96 | 1020.9 |
| 20260903060241 | 74 | 150 | 0.0 | 0.0 | 0.00 | 0.00 | 0.00 | 96 | 1020.6 |
| 20260903055733 | 75 | 150 | 0.0 | 0.0 | 0.00 | 0.00 | 0.00 | 96 | 1020.7 |
| 20260903055232 | 75 | 150 | 0.0 | 0.0 | 0.00 | 0.00 | 0.00 | 96 | 1020.9 |
| 20260903054727 | 75 | 150 | 0.0 | 0.0 | 0.00 | 0.00 | 0.00 | 96 | 1020.5 |
| 20260903054222 | 75 | 150 | 0.0 | 0.0 | 0.00 | 0.00 | 0.00 | 96 | 1020.7 |
| 20260903053719 | 75 | 150 | 0.0 | 0.0 | 0.00 | 0.00 | 0.00 | 96 | 1020.8 |
| 20260903053219 | 75 | 150 | 0.0 | 0.0 | 0.00 | 0.00 | 0.00 | 96 | 1021.0 |
| 20260903052714 | 75 | 150 | 0.0 | 0.0 | 0.00 | 0.00 | 0.00 | 95 | 1020.8 |
| 20260903052210 | 75 | 150 | 0.0 | 0.0 | 0.00 | 0.00 | 0.00 | 95 | 1020.7 |
| 20260903051705 | 75 | 151 | 0.0 | 0.0 | 0.00 | 0.00 | 0.00 | 95 | 1020.7 |
| 20260903051201 | 75 | 151 | 0.0 | 0.0 | 0.00 | 0.00 | 0.00 | 95 | 1020.6 |
| 20260903050656 | 75 | 151 | 0.0 | 0.0 | 0.00 | 0.00 | 0.00 | 95 | 1020.4 |
| 20260903050154 | 75 | 151 | 0.0 | 0.0 | 0.00 | 0.00 | 0.00 | 95 | 1020.5 |
| 20260903045649 | 75 | 151 | 0.0 | 0.0 | 0.00 | 0.00 | 0.00 | 95 | 1020.5 |
| 20260903045140 | 75 | 151 | 0.0 | 0.0 | 0.00 | 0.00 | 0.00 | 95 | 1020.5 |
| 20260903044636 | 75 | 151 | 0.0 | 0.0 | 0.00 | 0.00 | 0.00 | 94 | 1020.5 |
| 20260903044131 | 75 | 151 | 0.0 | 0.0 | 0.00 | 0.00 | 0.00 | 94 | 1020.6 |
| 20260903043628 | 76 | 151 | 0.0 | 0.0 | 0.00 | 0.00 | 0.00 | 94 | 1020.5 |
| 20260903043126 | 76 | 151 | 0.0 | 0.0 | 0.00 | 0.00 | 0.00 | 94 | 1020.5 |
| 20260903042621 | 76 | 151 | 0.0 | 0.0 | 0.00 | 0.00 | 0.00 | 94 | 1020.5 |
| 20260903042116 | 76 | 151 | 0.0 | 0.0 | 0.00 | 0.00 | 0.00 | 93 | 1020.6 |
| 20260903041613 | 76 | 151 | 0.0 | 0.0 | 0.00 | 0.00 | 0.00 | 93 | 1020.3 |
| 20260903041108 | 76 | 151 | 0.0 | 0.0 | 0.00 | 0.00 | 0.00 | 93 | 1020.5 |
| 20260903040607 | 76 | 151 | 0.0 | 0.0 | 0.00 | 0.00 | 0.00 | 93 | 1020.3 |
| 20260903040104 | 77 | 151 | 0.0 | 0.0 | 0.00 | 0.00 | 0.00 | 93 | 1020.4 |
| 20260903035559 | 77 | 151 | 0.0 | 0.0 | 0.00 | 0.00 | 0.00 | 93 | 1020.6 |
| 20260903035054 | 77 | 151 | 0.0 | 0.0 | 0.00 | 0.00 | 0.00 | 92 | 1020.6 |
| 20260903034549 | 77 | 151 | 0.0 | 0.0 | 0.00 | 0.00 | 0.00 | 92 | 1020.5 |
| 20260903034044 | 77 | 151 | 0.0 | 0.0 | 0.00 | 0.00 | 0.00 | 92 | 1020.4 |
| 20260903033539 | 77 | 151 | 0.0 | 0.0 | 0.00 | 0.00 | 0.00 | 92 | 1020.4 |
| 20260903033034 | 77 | 151 | 0.0 | 0.0 | 0.00 | 0.00 | 0.00 | 91 | 1020.4 |
| 20260903032529 | 77 | 151 | 0.0 | 0.0 | 0.00 | 0.00 | 0.00 | 91 | 1020.6 |
| 20260903032025 | 77 | 151 | 0.0 | 0.0 | 0.00 | 0.00 | 0.00 | 91 | 1020.3 |
| 20260903031524 | 77 | 151 | 0.0 | 0.0 | 0.00 | 0.00 | 0.00 | 90 | 1020.6 |
| 20260903031020 | 78 | 151 | 0.0 | 0.0 | 0.00 | 0.00 | 0.00 | 90 | 1020.3 |
| 20260903030515 | 78 | 151 | 0.0 | 0.0 | 0.00 | 0.00 | 0.00 | 90 | 1020.6 |
| 20260903030011 | 78 | 151 | 0.0 | 0.0 | 0.00 | 0.00 | 0.00 | 89 | 1020.4 |
| 20260903025507 | 78 | 153 | 0.0 | 0.0 | 0.00 | 0.00 | 0.00 | 89 | 1020.3 |
| 20260903025002 | 78 | 153 | 0.0 | 0.0 | 0.00 | 0.00 | 0.00 | 89 | 1020.4 |
| 20260903024501 | 78 | 153 | 0.0 | 0.0 | 0.00 | 0.00 | 0.00 | 88 | 1020.5 |
| 20260903023955 | 78 | 153 | 0.0 | 0.0 | 0.00 | 0.00 | 0.00 | 88 | 1020.4 |
| 20260903023452 | 78 | 153 | 0.0 | 0.0 | 0.00 | 0.00 | 0.00 | 87 | 1020.4 |
| 20260903022947 | 79 | 153 | 0.0 | 0.0 | 0.00 | 0.00 | 0.00 | 87 | 1020.4 |
| 20260903022446 | 79 | 153 | 0.0 | 0.0 | 0.00 | 0.00 | 0.00 | 87 | 1020.5 |
| 20260903021944 | 79 | 153 | 0.0 | 0.0 | 0.00 | 0.00 | 0.00 | 86 | 1020.5 |
| 20260903021440 | 79 | 153 | 0.0 | 0.0 | 0.00 | 0.00 | 0.00 | 86 | 1020.4 |
| 20260903020935 | 80 | 153 | 0.0 | 0.0 | 0.00 | 0.00 | 0.00 | 85 | 1020.6 |
| 20260903020430 | 80 | 153 | 0.0 | 0.0 | 0.00 | 0.00 | 0.00 | 85 | 1020.4 |
| 20260903015925 | 80 | 153 | 0.0 | 0.0 | 0.00 | 0.00 | 0.00 | 84 | 1020.4 |
| 20260903015420 | 80 | 153 | 0.0 | 0.0 | 0.00 | 0.00 | 0.00 | 84 | 1020.4 |
| 20260903014915 | 80 | 153 | 0.0 | 0.0 | 0.00 | 0.00 | 0.00 | 83 | 1020.4 |
| 20260903014409 | 81 | 153 | 0.0 | 0.0 | 0.00 | 0.00 | 0.00 | 82 | 1020.4 |
| 20260903013905 | 81 | 153 | 0.0 | 0.0 | 0.00 | 0.00 | 0.00 | 82 | 1020.3 |
| 20260903013404 | 81 | 153 | 0.0 | 0.0 | 0.00 | 0.00 | 0.00 | 81 | 1020.3 |
| 20260903012903 | 81 | 153 | 0.0 | 0.0 | 0.00 | 0.00 | 0.00 | 80 | 1020.0 |
| 20260903012403 | 82 | 153 | 0.0 | 0.0 | 0.00 | 0.00 | 0.00 | 80 | 1020.3 |
| 20260903011901 | 82 | 153 | 0.0 | 0.0 | 0.00 | 0.00 | 0.00 | 79 | 1020.0 |
| 20260903011356 | 82 | 153 | 0.0 | 0.0 | 0.00 | 0.00 | 0.00 | 78 | 1020.3 |
| 20260903010851 | 82 | 153 | 0.0 | 0.0 | 0.00 | 0.00 | 0.00 | 77 | 1020.2 |
| 20260903010347 | 83 | 154 | 0.0 | 0.0 | 0.00 | 0.00 | 0.00 | 77 | 1020.0 |
| 20260903005845 | 83 | 154 | 0.0 | 0.0 | 0.00 | 0.00 | 0.00 | 76 | 1020.1 |
| 20260903005340 | 84 | 154 | 0.0 | 0.0 | 0.00 | 0.00 | 0.00 | 75 | 1020.2 |
| 20260903004837 | 84 | 154 | 0.0 | 0.0 | 0.00 | 0.00 | 0.00 | 73 | 1019.9 |
| 20260903004332 | 84 | 154 | 0.0 | 0.0 | 0.00 | 0.00 | 0.00 | 72 | 1020.1 |
| 20260903003827 | 85 | 154 | 0.0 | 0.0 | 0.00 | 0.00 | 0.00 | 71 | 1020.0 |
| 20260903003322 | 85 | 154 | 0.0 | 0.0 | 0.00 | 0.00 | 0.00 | 71 | 1019.8 |
| 20260903002821 | 86 | 154 | 0.0 | 0.0 | 0.00 | 0.00 | 0.00 | 70 | 1020.0 |
| 20260903002322 | 86 | 154 | 0.0 | 0.0 | 0.00 | 0.00 | 0.00 | 68 | 1020.2 |
| 20260903001816 | 87 | 154 | 0.0 | 0.0 | 0.00 | 0.00 | 0.00 | 67 | 1020.0 |
| 20260903001312 | 87 | 154 | 0.0 | 0.0 | 0.00 | 0.00 | 0.00 | 67 | 1020.0 |
| 20260903000812 | 88 | 154 | 0.0 | 0.0 | 0.00 | 0.00 | 0.00 | 66 | 1020.3 |
| 20260903000307 | 88 | 154 | 0.0 | 0.0 | 0.00 | 0.00 | 0.00 | 64 | 1020.0 |
| 20260902235804 | 89 | 154 | 0.0 | 0.0 | 0.00 | 0.00 | 0.00 | 63 | 1020.2 |
| 20260902235300 | 89 | 154 | 0.0 | 0.0 | 0.00 | 0.00 | 0.00 | 63 | 1020.2 |
| 20260902234754 | 90 | 154 | 0.0 | 0.0 | 0.00 | 0.00 | 0.00 | 61 | 1019.9 |
| 20260902234253 | 90 | 154 | 0.0 | 0.0 | 0.00 | 0.00 | 0.00 | 61 | 1020.1 |
| 20260902233747 | 91 | 154 | 0.0 | 0.0 | 0.00 | 0.00 | 0.00 | 60 | 1019.9 |
| 20260902233242 | 91 | 154 | 0.0 | 0.0 | 0.00 | 0.00 | 0.00 | 59 | 1020.0 |
| 20260902232740 | 91 | 153 | 0.0 | 0.0 | 0.00 | 0.00 | 0.00 | 59 | 1020.1 |
| 20260902232235 | 92 | 153 | 0.0 | 0.0 | 0.00 | 0.00 | 0.00 | 58 | 1020.0 |
| 20260902231734 | 92 | 155 | 0.0 | 0.0 | 0.00 | 0.00 | 0.00 | 58 | 1020.1 |